Weather History for Dryden, TX

Change the Weather History Date:

Saturday, August 3, 2013

  Actual Average (KFST) Record (KFST)
Temperature  
Mean Temperature 90 °F -  
Max Temperature 104 °F 93 °F 105 °F (2012)
Min Temperature 78 °F 69 °F 64 °F (2014)
Cooling Degree Days 25    
Growing Degree Days 40 (Base 50)    
Moisture  
Dew Point 57 °F    
Average Humidity 34    
Maximum Humidity 58    
Minimum Humidity 21    
Precipitation  
Precipitation 0.00 in - - ()
Sea Level Pressure  
Sea Level Pressure 29.85 in    
Wind  
Wind Speed 10 mph (ESE)    
Max Wind Speed 17 mph    
Max Gust Speed 26 mph    
Averages and records for this station are not official NWS values.
T = Trace of Precipitation, MM = Missing Value Source: NWS Daily Summary

Daily Weather History Graph

Daily Weather History Graph

Search for Another Location

Airport:

Trip Planner

Search our weather history database for the weather conditions in past years. The results will help you decide how hot, cold, wet, or windy it might be!

Date:

Astronomy

Aug. 03, 2013 Rise Set
Actual Time 7:09 AM CDT 8:40 PM CDT
Civil Twilight 6:43 AM CDT 9:06 PM CDT
Nautical Twilight 6:12 AM CDT 9:37 PM CDT
Astronomical Twilight 5:40 AM CDT 10:09 PM CDT
Moon 4:23 AM CDT (8/3) 6:22 PM CDT (8/3)
Length of Visible Light 14h 22m
Length of Day
13h 31m
Waning Crescent, 9% of the Moon is Illuminated
Aug 3
Waning Crescent
Aug 6
New
Aug 14
First Quarter
Aug 20
Full
Aug 28
Last Quarter

Hourly Weather History & Observations

Time (CDT) Temp. Heat Index Dew Point Humidity Pressure Visibility Wind Dir Wind Speed Gust Speed Precip Events Conditions
12:53 AM 89.1 °F 87.1 °F 55.0 °F 31% 29.84 in - ESE 11.5 mph 19.6 mph N/A   Unknown
1:53 AM 88.0 °F 86.1 °F 55.0 °F 32% 29.84 in - ESE 15.0 mph 21.9 mph N/A   Unknown
2:53 AM 86.0 °F 84.7 °F 55.9 °F 36% 29.84 in - East 11.5 mph - N/A   Unknown
3:53 AM 82.9 °F 82.4 °F 57.0 °F 41% 29.84 in - ESE 10.4 mph - N/A   Unknown
4:53 AM 81.0 °F 81.3 °F 59.0 °F 47% 29.85 in - ESE 6.9 mph - N/A   Unknown
5:53 AM 80.1 °F 81.1 °F 61.0 °F 52% 29.86 in - East 6.9 mph - N/A   Unknown
6:53 AM 78.1 °F - 62.1 °F 58% 29.88 in - ENE 3.5 mph - N/A   Unknown
7:53 AM 79.0 °F - 62.1 °F 56% 29.88 in - ENE 4.6 mph - N/A   Unknown
8:53 AM 82.9 °F 83.2 °F 60.1 °F 46% 29.90 in - SE 11.5 mph - N/A   Unknown
9:53 AM 84.9 °F 84.4 °F 59.0 °F 41% 29.90 in - ESE 9.2 mph - N/A   Unknown
10:53 AM 89.1 °F 88.2 °F 59.0 °F 36% 29.89 in - SSE 4.6 mph - N/A   Unknown
11:53 AM 91.9 °F 91.2 °F 59.0 °F 33% 29.89 in - SSE 8.1 mph - N/A   Unknown
12:53 PM 95.0 °F 94.0 °F 57.9 °F 29% 29.88 in - Variable 4.6 mph - N/A   Unknown
1:53 PM 98.1 °F 96.4 °F 55.9 °F 24% 29.86 in - East 4.6 mph - N/A   Unknown
2:53 PM 100.9 °F 100.0 °F 57.0 °F 23% 29.84 in - SE 15.0 mph 19.6 mph N/A   Unknown
3:53 PM 102.0 °F 101.1 °F 57.0 °F 22% 29.83 in - East 15.0 mph 24.2 mph N/A   Unknown
4:53 PM 102.0 °F 100.6 °F 55.0 °F 21% 29.81 in - ESE 8.1 mph 21.9 mph N/A   Unknown
5:53 PM 100.9 °F 99.1 °F 54.0 °F 21% 29.81 in - ESE 11.5 mph 26.5 mph N/A   Unknown
6:53 PM 100.0 °F 97.9 °F 54.0 °F 21% 29.81 in - ESE 17.3 mph 24.2 mph N/A   Unknown
7:53 PM 97.0 °F 95.0 °F 55.0 °F 24% 29.82 in - ESE 13.8 mph 20.7 mph N/A   Unknown
8:53 PM 93.9 °F 92.2 °F 55.9 °F 28% 29.82 in - ESE 15.0 mph - N/A   Unknown
9:53 PM 91.9 °F 90.8 °F 57.9 °F 32% 29.84 in - ESE 12.7 mph - N/A   Unknown
10:53 PM 89.1 °F 87.7 °F 57.0 °F 34% 29.85 in - East 10.4 mph - N/A   Unknown
11:53 PM 88.0 °F 86.5 °F 55.9 °F 34% 29.86 in - East 8.1 mph - N/A   Unknown